This is the latest recevied weather packets stored in our database for station/object W0DXV. If no packets are shown the sender has not sent any weather packets the latest 10 day(s).
| Time | Temp. | Humidity | Pressure | Rain* | Wind** | Luminosity | Snow |
|---|---|---|---|---|---|---|---|
| 1778021587 | 23.89° C | 45% | 1009.2 hPa | 0 mm | - | 67 W/m² | - |
| 1778021282 | 23.89° C | 43% | 1009.1 hPa | 0 mm | - | 72 W/m² | - |
| 1778020980 | 23.89° C | 43% | 1008.9 hPa | 0 mm | - | 78 W/m² | - |
| 1778020677 | 23.89° C | 44% | 1009 hPa | 0 mm | - | 58 W/m² | - |
| 1778020374 | 23.89° C | 44% | 1009 hPa | 0 mm | - | 57 W/m² | - |
| 1778020070 | 24.44° C | 44% | 1009 hPa | 0 mm | - | 38 W/m² | - |
| 1778019766 | 25° C | 41% | 1009.4 hPa | 0 mm | - | 30 W/m² | - |
| 1778019463 | 25° C | 41% | 1009.3 hPa | 0 mm | - | 41 W/m² | - |
| 1778019160 | 25° C | 40% | 1009.4 hPa | 0 mm | - | 49 W/m² | - |
| 1778018856 | 25° C | 42% | 1009.4 hPa | 0 mm | - | 61 W/m² | - |
| 1778018554 | 25° C | 41% | 1009.6 hPa | 0 mm | - | 51 W/m² | - |
| 1778018252 | 25° C | 41% | 1009.3 hPa | 0 mm | - | 51 W/m² | - |
| 1778017949 | 25.56° C | 40% | 1009.3 hPa | 0 mm | - | 61 W/m² | - |
| 1778017647 | 25.56° C | 39% | 1009.4 hPa | 0 mm | - | 89 W/m² | - |
| 1778017344 | 25.56° C | 38% | 1009.5 hPa | 0 mm | - | 125 W/m² | - |
| 1778017042 | 25.56° C | 38% | 1009.6 hPa | 0 mm | - | 131 W/m² | - |
| 1778016739 | 25° C | 38% | 1009.6 hPa | 0 mm | - | 107 W/m² | - |
| 1778016435 | 25.56° C | 39% | 1009.6 hPa | 0 mm | - | 96 W/m² | - |
| 1778016132 | 25.56° C | 40% | 1009.5 hPa | 0 mm | - | 114 W/m² | - |
| 1778015829 | 26.11° C | 37% | 1009.6 hPa | 0 mm | - | 83 W/m² | - |
| 1778015526 | 26.11° C | 38% | 1009.7 hPa | 0 mm | - | 95 W/m² | - |
| 1778015223 | 26.11° C | 36% | 1009.5 hPa | 0 mm | - | 81 W/m² | - |
| 1778014920 | 26.11° C | 37% | 1009.6 hPa | 0 mm | - | 68 W/m² | - |
| 1778014617 | 26.11° C | 37% | 1009.5 hPa | 0 mm | - | 69 W/m² | - |
| 1778014315 | 26.11° C | 37% | 1009.6 hPa | 0 mm | - | 87 W/m² | - |
* Rain latest hour (hover to see other rain measurements)
** Current wind speed in m/s (hover to see current wind gust speed)